owner,sensor,date,latitude,longitude,vertical_datum,sea_water_temperature,qcFlag 
COMPS,ioos:station:USF.COMPS:C12:1,2019-04-01T00:05:00Z,27.4980,-83.7220,1.0,22.0,11111222 
COMPS,ioos:station:USF.COMPS:C12:1,2019-04-01T00:35:00Z,27.4980,-83.7220,1.0,21.98,11111222 
COMPS,ioos:station:USF.COMPS:C12:1,2019-04-01T01:05:00Z,27.4980,-83.7220,1.0,21.97,11111222 
COMPS,ioos:station:USF.COMPS:C12:1,2019-04-01T01:35:00Z,27.4980,-83.7220,1.0,21.92,11111222 
COMPS,ioos:station:USF.COMPS:C12:1,2019-04-01T02:05:00Z,27.4980,-83.7220,1.0,21.86,11111222 
COMPS,ioos:station:USF.COMPS:C12:1,2019-04-01T02:35:00Z,27.4980,-83.7220,1.0,21.8,11111222 
COMPS,ioos:station:USF.COMPS:C12:1,2019-04-01T03:05:00Z,27.4980,-83.7220,1.0,21.76,11111222 
COMPS,ioos:station:USF.COMPS:C12:1,2019-04-01T03:35:00Z,27.4980,-83.7220,1.0,21.74,11111222 
COMPS,ioos:station:USF.COMPS:C12:1,2019-04-01T04:05:00Z,27.4980,-83.7220,1.0,21.72,11111222 
COMPS,ioos:station:USF.COMPS:C12:1,2019-04-01T04:35:00Z,27.4980,-83.7220,1.0,21.71,11111222 
COMPS,ioos:station:USF.COMPS:C12:1,2019-04-01T05:05:00Z,27.4980,-83.7220,1.0,21.7,11111222 
COMPS,ioos:station:USF.COMPS:C12:1,2019-04-01T05:35:00Z,27.4980,-83.7220,1.0,21.7,11111222 
COMPS,ioos:station:USF.COMPS:C12:1,2019-04-01T06:05:00Z,27.4980,-83.7220,1.0,21.69,11111222 
COMPS,ioos:station:USF.COMPS:C12:1,2019-04-01T06:35:00Z,27.4980,-83.7220,1.0,21.68,11111222 
COMPS,ioos:station:USF.COMPS:C12:1,2019-04-01T07:05:00Z,27.4980,-83.7220,1.0,21.68,11111222 
COMPS,ioos:station:USF.COMPS:C12:1,2019-04-01T07:35:00Z,27.4980,-83.7220,1.0,21.82,11111222 
COMPS,ioos:station:USF.COMPS:C12:1,2019-04-01T08:05:00Z,27.4980,-83.7220,1.0,21.83,11111222 
COMPS,ioos:station:USF.COMPS:C12:1,2019-04-01T08:35:00Z,27.4980,-83.7220,1.0,21.84,11111222 
COMPS,ioos:station:USF.COMPS:C12:1,2019-04-01T09:05:00Z,27.4980,-83.7220,1.0,21.82,11111222 
COMPS,ioos:station:USF.COMPS:C12:1,2019-04-01T09:35:00Z,27.4980,-83.7220,1.0,21.81,11111222 
COMPS,ioos:station:USF.COMPS:C12:1,2019-04-01T10:05:00Z,27.4980,-83.7220,1.0,21.8,11111222 
COMPS,ioos:station:USF.COMPS:C12:1,2019-04-01T10:35:00Z,27.4980,-83.7220,1.0,21.79,11111222 
COMPS,ioos:station:USF.COMPS:C12:1,2019-04-01T11:05:00Z,27.4980,-83.7220,1.0,21.77,11111222 
COMPS,ioos:station:USF.COMPS:C12:1,2019-04-01T11:35:00Z,27.4980,-83.7220,1.0,21.76,11111222 
COMPS,ioos:station:USF.COMPS:C12:1,2019-04-01T12:05:00Z,27.4980,-83.7220,1.0,21.73,11111222 
COMPS,ioos:station:USF.COMPS:C12:1,2019-04-01T12:35:00Z,27.4980,-83.7220,1.0,21.73,11111222 
COMPS,ioos:station:USF.COMPS:C12:1,2019-04-01T13:05:00Z,27.4980,-83.7220,1.0,21.7,11111222 
COMPS,ioos:station:USF.COMPS:C12:1,2019-04-01T13:35:00Z,27.4980,-83.7220,1.0,21.68,11111222 
COMPS,ioos:station:USF.COMPS:C12:1,2019-04-01T15:05:00Z,27.4980,-83.7220,1.0,21.65,11111222 
COMPS,ioos:station:USF.COMPS:C12:1,2019-04-01T15:35:00Z,27.4980,-83.7220,1.0,21.65,11111222 
COMPS,ioos:station:USF.COMPS:C12:1,2019-04-01T16:05:00Z,27.4980,-83.7220,1.0,21.66,11111222 
COMPS,ioos:station:USF.COMPS:C12:1,2019-04-01T16:35:00Z,27.4980,-83.7220,1.0,21.67,11111222 
COMPS,ioos:station:USF.COMPS:C12:1,2019-04-01T17:05:00Z,27.4980,-83.7220,1.0,21.68,11111222 
COMPS,ioos:station:USF.COMPS:C12:1,2019-04-01T17:35:00Z,27.4980,-83.7220,1.0,21.7,11111222 
COMPS,ioos:station:USF.COMPS:C12:1,2019-04-01T18:05:00Z,27.4980,-83.7220,1.0,21.71,11111222 
COMPS,ioos:station:USF.COMPS:C12:1,2019-04-01T18:35:00Z,27.4980,-83.7220,1.0,21.73,11111222 
COMPS,ioos:station:USF.COMPS:C12:1,2019-04-01T19:05:00Z,27.4980,-83.7220,1.0,21.74,11111222 
COMPS,ioos:station:USF.COMPS:C12:1,2019-04-01T19:35:00Z,27.4980,-83.7220,1.0,21.77,11111222 
COMPS,ioos:station:USF.COMPS:C12:1,2019-04-01T20:05:00Z,27.4980,-83.7220,1.0,21.79,11111222 
COMPS,ioos:station:USF.COMPS:C12:1,2019-04-01T20:35:00Z,27.4980,-83.7220,1.0,21.8,11111222 
COMPS,ioos:station:USF.COMPS:C12:1,2019-04-01T21:05:00Z,27.4980,-83.7220,1.0,21.81,11111222 
COMPS,ioos:station:USF.COMPS:C12:1,2019-04-01T21:35:00Z,27.4980,-83.7220,1.0,21.84,11111222 
COMPS,ioos:station:USF.COMPS:C12:1,2019-04-01T22:05:00Z,27.4980,-83.7220,1.0,21.87,11111222 
COMPS,ioos:station:USF.COMPS:C12:1,2019-04-01T22:35:00Z,27.4980,-83.7220,1.0,21.91,11111222 
COMPS,ioos:station:USF.COMPS:C12:1,2019-04-01T23:05:00Z,27.4980,-83.7220,1.0,21.92,11111222 
COMPS,ioos:station:USF.COMPS:C12:1,2019-04-01T23:35:00Z,27.4980,-83.7220,1.0,21.92,11111222 
COMPS,ioos:station:USF.COMPS:C12:1,2019-04-02T00:05:00Z,27.4980,-83.7220,1.0,21.92,11111222 
COMPS,ioos:station:USF.COMPS:C12:1,2019-04-02T00:35:00Z,27.4980,-83.7220,1.0,21.96,11111222 
COMPS,ioos:station:USF.COMPS:C12:1,2019-04-02T01:05:00Z,27.4980,-83.7220,1.0,21.97,11111222 
COMPS,ioos:station:USF.COMPS:C12:1,2019-04-02T01:35:00Z,27.4980,-83.7220,1.0,21.99,11111222 
COMPS,ioos:station:USF.COMPS:C12:1,2019-04-02T02:05:00Z,27.4980,-83.7220,1.0,22.0,11111222 
COMPS,ioos:station:USF.COMPS:C12:1,2019-04-02T02:35:00Z,27.4980,-83.7220,1.0,22.0,11111222 
COMPS,ioos:station:USF.COMPS:C12:1,2019-04-02T03:05:00Z,27.4980,-83.7220,1.0,22.01,11111222 
COMPS,ioos:station:USF.COMPS:C12:1,2019-04-02T03:35:00Z,27.4980,-83.7220,1.0,22.01,11111222 
COMPS,ioos:station:USF.COMPS:C12:1,2019-04-02T04:05:00Z,27.4980,-83.7220,1.0,22.02,11111222 
COMPS,ioos:station:USF.COMPS:C12:1,2019-04-02T04:35:00Z,27.4980,-83.7220,1.0,22.01,11111222 
COMPS,ioos:station:USF.COMPS:C12:1,2019-04-02T05:05:00Z,27.4980,-83.7220,1.0,22.02,11111222 
COMPS,ioos:station:USF.COMPS:C12:1,2019-04-02T05:35:00Z,27.4980,-83.7220,1.0,22.02,11111222 
COMPS,ioos:station:USF.COMPS:C12:1,2019-04-02T06:05:00Z,27.4980,-83.7220,1.0,22.01,11111222 
COMPS,ioos:station:USF.COMPS:C12:1,2019-04-02T06:35:00Z,27.4980,-83.7220,1.0,22.01,11111222 
COMPS,ioos:station:USF.COMPS:C12:1,2019-04-02T07:05:00Z,27.4980,-83.7220,1.0,22.01,11111222 
COMPS,ioos:station:USF.COMPS:C12:1,2019-04-02T07:35:00Z,27.4980,-83.7220,1.0,22.01,11111222 
COMPS,ioos:station:USF.COMPS:C12:1,2019-04-02T08:05:00Z,27.4980,-83.7220,1.0,22.01,11111222 
COMPS,ioos:station:USF.COMPS:C12:1,2019-04-02T08:35:00Z,27.4980,-83.7220,1.0,22.02,11111222 
COMPS,ioos:station:USF.COMPS:C12:1,2019-04-02T09:05:00Z,27.4980,-83.7220,1.0,22.02,11111222 
COMPS,ioos:station:USF.COMPS:C12:1,2019-04-02T09:35:00Z,27.4980,-83.7220,1.0,22.03,11111222 
COMPS,ioos:station:USF.COMPS:C12:1,2019-04-02T10:05:00Z,27.4980,-83.7220,1.0,22.02,11111222 
COMPS,ioos:station:USF.COMPS:C12:1,2019-04-02T10:35:00Z,27.4980,-83.7220,1.0,22.03,11111222 
COMPS,ioos:station:USF.COMPS:C12:1,2019-04-02T11:05:00Z,27.4980,-83.7220,1.0,22.02,11111222 
COMPS,ioos:station:USF.COMPS:C12:1,2019-04-02T11:35:00Z,27.4980,-83.7220,1.0,22.03,11111222 
COMPS,ioos:station:USF.COMPS:C12:1,2019-04-02T12:05:00Z,27.4980,-83.7220,1.0,22.03,11111222 
COMPS,ioos:station:USF.COMPS:C12:1,2019-04-02T12:35:00Z,27.4980,-83.7220,1.0,22.02,11111222 
COMPS,ioos:station:USF.COMPS:C12:1,2019-04-02T13:05:00Z,27.4980,-83.7220,1.0,22.02,11111222 
COMPS,ioos:station:USF.COMPS:C12:1,2019-04-02T13:35:00Z,27.4980,-83.7220,1.0,22.03,11111222 
COMPS,ioos:station:USF.COMPS:C12:1,2019-04-02T14:05:00Z,27.4980,-83.7220,1.0,22.02,11111222 
COMPS,ioos:station:USF.COMPS:C12:1,2019-04-02T14:35:00Z,27.4980,-83.7220,1.0,22.04,11111222 
COMPS,ioos:station:USF.COMPS:C12:1,2019-04-02T15:05:00Z,27.4980,-83.7220,1.0,22.06,11111222 
COMPS,ioos:station:USF.COMPS:C12:1,2019-04-02T15:35:00Z,27.4980,-83.7220,1.0,22.09,11111222 
COMPS,ioos:station:USF.COMPS:C12:1,2019-04-02T16:05:00Z,27.4980,-83.7220,1.0,22.11,11111222 
COMPS,ioos:station:USF.COMPS:C12:1,2019-04-02T16:35:00Z,27.4980,-83.7220,1.0,22.11,11111222 
COMPS,ioos:station:USF.COMPS:C12:1,2019-04-02T17:05:00Z,27.4980,-83.7220,1.0,22.11,11111222 
COMPS,ioos:station:USF.COMPS:C12:1,2019-04-02T17:35:00Z,27.4980,-83.7220,1.0,22.11,11111222 
COMPS,ioos:station:USF.COMPS:C12:1,2019-04-02T18:05:00Z,27.4980,-83.7220,1.0,22.12,11111222 
COMPS,ioos:station:USF.COMPS:C12:1,2019-04-02T18:35:00Z,27.4980,-83.7220,1.0,22.11,11111222 
COMPS,ioos:station:USF.COMPS:C12:1,2019-04-02T20:05:00Z,27.4980,-83.7220,1.0,22.13,11111222 
COMPS,ioos:station:USF.COMPS:C12:1,2019-04-02T20:35:00Z,27.4980,-83.7220,1.0,22.14,11111222 
COMPS,ioos:station:USF.COMPS:C12:1,2019-04-02T21:05:00Z,27.4980,-83.7220,1.0,22.12,11111222 
COMPS,ioos:station:USF.COMPS:C12:1,2019-04-02T21:35:00Z,27.4980,-83.7220,1.0,22.12,11111222 
COMPS,ioos:station:USF.COMPS:C12:1,2019-04-02T22:05:00Z,27.4980,-83.7220,1.0,22.12,11111222 
COMPS,ioos:station:USF.COMPS:C12:1,2019-04-02T22:35:00Z,27.4980,-83.7220,1.0,22.12,11111222 
COMPS,ioos:station:USF.COMPS:C12:1,2019-04-02T23:05:00Z,27.4980,-83.7220,1.0,22.11,11111222 
COMPS,ioos:station:USF.COMPS:C12:1,2019-04-02T23:35:00Z,27.4980,-83.7220,1.0,22.09,11111222 
COMPS,ioos:station:USF.COMPS:C12:1,2019-04-03T00:05:00Z,27.4980,-83.7220,1.0,22.08,11111222 
COMPS,ioos:station:USF.COMPS:C12:1,2019-04-03T00:35:00Z,27.4980,-83.7220,1.0,22.07,11111222 
COMPS,ioos:station:USF.COMPS:C12:1,2019-04-03T01:05:00Z,27.4980,-83.7220,1.0,22.04,11111222 
COMPS,ioos:station:USF.COMPS:C12:1,2019-04-03T01:35:00Z,27.4980,-83.7220,1.0,22.04,11111222 
COMPS,ioos:station:USF.COMPS:C12:1,2019-04-03T02:05:00Z,27.4980,-83.7220,1.0,22.02,11111222 
COMPS,ioos:station:USF.COMPS:C12:1,2019-04-03T02:35:00Z,27.4980,-83.7220,1.0,22.0,11111222 
COMPS,ioos:station:USF.COMPS:C12:1,2019-04-03T03:05:00Z,27.4980,-83.7220,1.0,22.0,11111222 
COMPS,ioos:station:USF.COMPS:C12:1,2019-04-03T03:35:00Z,27.4980,-83.7220,1.0,22.0,11111222 
COMPS,ioos:station:USF.COMPS:C12:1,2019-04-03T04:05:00Z,27.4980,-83.7220,1.0,21.98,11111222 
COMPS,ioos:station:USF.COMPS:C12:1,2019-04-03T04:35:00Z,27.4980,-83.7220,1.0,21.99,11111222 
COMPS,ioos:station:USF.COMPS:C12:1,2019-04-03T05:05:00Z,27.4980,-83.7220,1.0,21.95,11111222 
COMPS,ioos:station:USF.COMPS:C12:1,2019-04-03T05:35:00Z,27.4980,-83.7220,1.0,21.96,11111222 
COMPS,ioos:station:USF.COMPS:C12:1,2019-04-03T06:05:00Z,27.4980,-83.7220,1.0,21.96,11111222 
COMPS,ioos:station:USF.COMPS:C12:1,2019-04-03T06:35:00Z,27.4980,-83.7220,1.0,21.96,11111222 
COMPS,ioos:station:USF.COMPS:C12:1,2019-04-03T07:05:00Z,27.4980,-83.7220,1.0,21.95,11111222 
COMPS,ioos:station:USF.COMPS:C12:1,2019-04-03T07:35:00Z,27.4980,-83.7220,1.0,21.92,11111222 
COMPS,ioos:station:USF.COMPS:C12:1,2019-04-03T08:05:00Z,27.4980,-83.7220,1.0,21.93,11111222 
COMPS,ioos:station:USF.COMPS:C12:1,2019-04-03T08:35:00Z,27.4980,-83.7220,1.0,21.92,11111222 
COMPS,ioos:station:USF.COMPS:C12:1,2019-04-03T09:05:00Z,27.4980,-83.7220,1.0,21.91,11111222 
COMPS,ioos:station:USF.COMPS:C12:1,2019-04-03T09:35:00Z,27.4980,-83.7220,1.0,21.91,11111222 
COMPS,ioos:station:USF.COMPS:C12:1,2019-04-03T10:05:00Z,27.4980,-83.7220,1.0,21.91,11111222 
COMPS,ioos:station:USF.COMPS:C12:1,2019-04-03T10:35:00Z,27.4980,-83.7220,1.0,21.9,11111222 
COMPS,ioos:station:USF.COMPS:C12:1,2019-04-03T11:05:00Z,27.4980,-83.7220,1.0,21.88,11111222 
COMPS,ioos:station:USF.COMPS:C12:1,2019-04-03T11:35:00Z,27.4980,-83.7220,1.0,21.88,11111222 
COMPS,ioos:station:USF.COMPS:C12:1,2019-04-03T12:05:00Z,27.4980,-83.7220,1.0,21.88,11111222 
COMPS,ioos:station:USF.COMPS:C12:1,2019-04-03T12:35:00Z,27.4980,-83.7220,1.0,21.88,11111222 
COMPS,ioos:station:USF.COMPS:C12:1,2019-04-03T13:05:00Z,27.4980,-83.7220,1.0,21.88,11111222 
COMPS,ioos:station:USF.COMPS:C12:1,2019-04-03T13:35:00Z,27.4980,-83.7220,1.0,21.87,11111222 
COMPS,ioos:station:USF.COMPS:C12:1,2019-04-03T14:05:00Z,27.4980,-83.7220,1.0,21.88,11111222 
COMPS,ioos:station:USF.COMPS:C12:1,2019-04-03T14:35:00Z,27.4980,-83.7220,1.0,21.88,11111222 
COMPS,ioos:station:USF.COMPS:C12:1,2019-04-03T15:05:00Z,27.4980,-83.7220,1.0,21.89,11111222 
COMPS,ioos:station:USF.COMPS:C12:1,2019-04-03T15:35:00Z,27.4980,-83.7220,1.0,21.9,11111222 
COMPS,ioos:station:USF.COMPS:C12:1,2019-04-03T16:05:00Z,27.4980,-83.7220,1.0,21.91,11111222 
COMPS,ioos:station:USF.COMPS:C12:1,2019-04-03T16:35:00Z,27.4980,-83.7220,1.0,21.91,11111222 
COMPS,ioos:station:USF.COMPS:C12:1,2019-04-03T17:05:00Z,27.4980,-83.7220,1.0,21.92,11111222 
COMPS,ioos:station:USF.COMPS:C12:1,2019-04-03T17:35:00Z,27.4980,-83.7220,1.0,21.92,11111222 
COMPS,ioos:station:USF.COMPS:C12:1,2019-04-03T18:05:00Z,27.4980,-83.7220,1.0,21.94,11111222 
COMPS,ioos:station:USF.COMPS:C12:1,2019-04-03T18:35:00Z,27.4980,-83.7220,1.0,21.96,11111222 
COMPS,ioos:station:USF.COMPS:C12:1,2019-04-03T19:05:00Z,27.4980,-83.7220,1.0,21.98,11111222 
COMPS,ioos:station:USF.COMPS:C12:1,2019-04-03T19:35:00Z,27.4980,-83.7220,1.0,21.98,11111222 
COMPS,ioos:station:USF.COMPS:C12:1,2019-04-03T20:05:00Z,27.4980,-83.7220,1.0,21.99,11111222 
COMPS,ioos:station:USF.COMPS:C12:1,2019-04-03T20:35:00Z,27.4980,-83.7220,1.0,22.02,11111222 
COMPS,ioos:station:USF.COMPS:C12:1,2019-04-03T21:05:00Z,27.4980,-83.7220,1.0,22.01,11111222 
COMPS,ioos:station:USF.COMPS:C12:1,2019-04-03T21:35:00Z,27.4980,-83.7220,1.0,22.02,11111222 
COMPS,ioos:station:USF.COMPS:C12:1,2019-04-03T22:05:00Z,27.4980,-83.7220,1.0,22.01,11111222 
COMPS,ioos:station:USF.COMPS:C12:1,2019-04-03T22:35:00Z,27.4980,-83.7220,1.0,22.01,11111222 
COMPS,ioos:station:USF.COMPS:C12:1,2019-04-03T23:05:00Z,27.4980,-83.7220,1.0,21.99,11111222 
COMPS,ioos:station:USF.COMPS:C12:1,2019-04-03T23:35:00Z,27.4980,-83.7220,1.0,21.98,11111222 
COMPS,ioos:station:USF.COMPS:C12:1,2019-04-04T00:05:00Z,27.4980,-83.7220,1.0,21.96,11111222 
COMPS,ioos:station:USF.COMPS:C12:1,2019-04-04T00:35:00Z,27.4980,-83.7220,1.0,21.95,11111222 
COMPS,ioos:station:USF.COMPS:C12:1,2019-04-04T01:05:00Z,27.4980,-83.7220,1.0,21.93,11111222 
COMPS,ioos:station:USF.COMPS:C12:1,2019-04-04T01:35:00Z,27.4980,-83.7220,1.0,21.94,11111222 
COMPS,ioos:station:USF.COMPS:C12:1,2019-04-04T02:05:00Z,27.4980,-83.7220,1.0,21.93,11111222 
COMPS,ioos:station:USF.COMPS:C12:1,2019-04-04T02:35:00Z,27.4980,-83.7220,1.0,21.94,11111222 
COMPS,ioos:station:USF.COMPS:C12:1,2019-04-04T03:05:00Z,27.4980,-83.7220,1.0,21.95,11111222 
COMPS,ioos:station:USF.COMPS:C12:1,2019-04-04T03:35:00Z,27.4980,-83.7220,1.0,21.93,11111222 
COMPS,ioos:station:USF.COMPS:C12:1,2019-04-04T04:05:00Z,27.4980,-83.7220,1.0,21.95,11111222 
COMPS,ioos:station:USF.COMPS:C12:1,2019-04-04T04:35:00Z,27.4980,-83.7220,1.0,21.94,11111222 
COMPS,ioos:station:USF.COMPS:C12:1,2019-04-04T05:05:00Z,27.4980,-83.7220,1.0,21.95,11111222 
COMPS,ioos:station:USF.COMPS:C12:1,2019-04-04T05:35:00Z,27.4980,-83.7220,1.0,21.94,11111222 
COMPS,ioos:station:USF.COMPS:C12:1,2019-04-04T06:05:00Z,27.4980,-83.7220,1.0,21.93,11111222 
COMPS,ioos:station:USF.COMPS:C12:1,2019-04-04T06:35:00Z,27.4980,-83.7220,1.0,21.94,11111222 
COMPS,ioos:station:USF.COMPS:C12:1,2019-04-04T07:05:00Z,27.4980,-83.7220,1.0,21.93,11111222 
COMPS,ioos:station:USF.COMPS:C12:1,2019-04-04T07:35:00Z,27.4980,-83.7220,1.0,21.93,11111222 
COMPS,ioos:station:USF.COMPS:C12:1,2019-04-04T08:05:00Z,27.4980,-83.7220,1.0,21.92,11111222 
COMPS,ioos:station:USF.COMPS:C12:1,2019-04-04T08:35:00Z,27.4980,-83.7220,1.0,21.9,11111222 
COMPS,ioos:station:USF.COMPS:C12:1,2019-04-04T09:05:00Z,27.4980,-83.7220,1.0,21.89,11111222 
COMPS,ioos:station:USF.COMPS:C12:1,2019-04-04T09:35:00Z,27.4980,-83.7220,1.0,21.89,11111222 
COMPS,ioos:station:USF.COMPS:C12:1,2019-04-04T10:05:00Z,27.4980,-83.7220,1.0,21.89,11111222 
COMPS,ioos:station:USF.COMPS:C12:1,2019-04-04T10:35:00Z,27.4980,-83.7220,1.0,21.89,11111222 
COMPS,ioos:station:USF.COMPS:C12:1,2019-04-04T11:05:00Z,27.4980,-83.7220,1.0,21.88,11111222 
COMPS,ioos:station:USF.COMPS:C12:1,2019-04-04T11:35:00Z,27.4980,-83.7220,1.0,21.88,11111222 
COMPS,ioos:station:USF.COMPS:C12:1,2019-04-04T12:05:00Z,27.4980,-83.7220,1.0,21.88,11111222 
COMPS,ioos:station:USF.COMPS:C12:1,2019-04-04T12:35:00Z,27.4980,-83.7220,1.0,21.88,11111222 
COMPS,ioos:station:USF.COMPS:C12:1,2019-04-04T13:05:00Z,27.4980,-83.7220,1.0,21.88,11111222 
COMPS,ioos:station:USF.COMPS:C12:1,2019-04-04T13:35:00Z,27.4980,-83.7220,1.0,21.89,11111222 
COMPS,ioos:station:USF.COMPS:C12:1,2019-04-04T14:05:00Z,27.4980,-83.7220,1.0,21.9,11111222 
COMPS,ioos:station:USF.COMPS:C12:1,2019-04-04T14:35:00Z,27.4980,-83.7220,1.0,21.92,11111222 
COMPS,ioos:station:USF.COMPS:C12:1,2019-04-04T15:05:00Z,27.4980,-83.7220,1.0,21.93,11111222 
COMPS,ioos:station:USF.COMPS:C12:1,2019-04-04T15:35:00Z,27.4980,-83.7220,1.0,21.94,11111222 
COMPS,ioos:station:USF.COMPS:C12:1,2019-04-04T16:05:00Z,27.4980,-83.7220,1.0,21.96,11111222 
COMPS,ioos:station:USF.COMPS:C12:1,2019-04-04T16:35:00Z,27.4980,-83.7220,1.0,21.98,11111222 
COMPS,ioos:station:USF.COMPS:C12:1,2019-04-04T17:05:00Z,27.4980,-83.7220,1.0,21.99,11111222 
COMPS,ioos:station:USF.COMPS:C12:1,2019-04-04T17:35:00Z,27.4980,-83.7220,1.0,22.0,11111222 
COMPS,ioos:station:USF.COMPS:C12:1,2019-04-04T18:05:00Z,27.4980,-83.7220,1.0,22.01,11111222 
COMPS,ioos:station:USF.COMPS:C12:1,2019-04-04T18:35:00Z,27.4980,-83.7220,1.0,22.04,11111222 
COMPS,ioos:station:USF.COMPS:C12:1,2019-04-04T19:05:00Z,27.4980,-83.7220,1.0,22.09,11111222 
COMPS,ioos:station:USF.COMPS:C12:1,2019-04-04T19:35:00Z,27.4980,-83.7220,1.0,22.13,11111222 
COMPS,ioos:station:USF.COMPS:C12:1,2019-04-04T20:05:00Z,27.4980,-83.7220,1.0,22.17,11111222 
COMPS,ioos:station:USF.COMPS:C12:1,2019-04-04T20:35:00Z,27.4980,-83.7220,1.0,22.21,11111222 
COMPS,ioos:station:USF.COMPS:C12:1,2019-04-04T21:05:00Z,27.4980,-83.7220,1.0,22.22,11111222 
COMPS,ioos:station:USF.COMPS:C12:1,2019-04-04T21:35:00Z,27.4980,-83.7220,1.0,22.32,11111222 
COMPS,ioos:station:USF.COMPS:C12:1,2019-04-04T22:05:00Z,27.4980,-83.7220,1.0,22.41,11111222 
COMPS,ioos:station:USF.COMPS:C12:1,2019-04-04T22:35:00Z,27.4980,-83.7220,1.0,22.37,11111222 
COMPS,ioos:station:USF.COMPS:C12:1,2019-04-04T23:05:00Z,27.4980,-83.7220,1.0,22.36,11111222 
COMPS,ioos:station:USF.COMPS:C12:1,2019-04-04T23:35:00Z,27.4980,-83.7220,1.0,22.36,11111222 
COMPS,ioos:station:USF.COMPS:C12:1,2019-04-05T00:05:00Z,27.4980,-83.7220,1.0,22.33,11111222 
COMPS,ioos:station:USF.COMPS:C12:1,2019-04-05T00:35:00Z,27.4980,-83.7220,1.0,22.3,11111222 
COMPS,ioos:station:USF.COMPS:C12:1,2019-04-05T01:05:00Z,27.4980,-83.7220,1.0,22.25,11111222 
COMPS,ioos:station:USF.COMPS:C12:1,2019-04-05T01:35:00Z,27.4980,-83.7220,1.0,22.24,11111222 
COMPS,ioos:station:USF.COMPS:C12:1,2019-04-05T02:05:00Z,27.4980,-83.7220,1.0,22.24,11111222 
COMPS,ioos:station:USF.COMPS:C12:1,2019-04-05T02:35:00Z,27.4980,-83.7220,1.0,22.24,11111222 
COMPS,ioos:station:USF.COMPS:C12:1,2019-04-05T03:05:00Z,27.4980,-83.7220,1.0,22.24,11111222 
COMPS,ioos:station:USF.COMPS:C12:1,2019-04-05T03:35:00Z,27.4980,-83.7220,1.0,22.22,11111222 
COMPS,ioos:station:USF.COMPS:C12:1,2019-04-05T04:05:00Z,27.4980,-83.7220,1.0,22.19,11111222 
COMPS,ioos:station:USF.COMPS:C12:1,2019-04-05T04:35:00Z,27.4980,-83.7220,1.0,22.19,11111222 
COMPS,ioos:station:USF.COMPS:C12:1,2019-04-05T05:05:00Z,27.4980,-83.7220,1.0,22.19,11111222 
COMPS,ioos:station:USF.COMPS:C12:1,2019-04-05T05:35:00Z,27.4980,-83.7220,1.0,22.18,11111222 
COMPS,ioos:station:USF.COMPS:C12:1,2019-04-05T06:05:00Z,27.4980,-83.7220,1.0,22.16,11111222 
COMPS,ioos:station:USF.COMPS:C12:1,2019-04-05T06:35:00Z,27.4980,-83.7220,1.0,22.16,11111222 
COMPS,ioos:station:USF.COMPS:C12:1,2019-04-05T07:05:00Z,27.4980,-83.7220,1.0,22.16,11111222 
COMPS,ioos:station:USF.COMPS:C12:1,2019-04-05T07:35:00Z,27.4980,-83.7220,1.0,22.14,11111222 
COMPS,ioos:station:USF.COMPS:C12:1,2019-04-05T08:05:00Z,27.4980,-83.7220,1.0,22.13,11111222 
COMPS,ioos:station:USF.COMPS:C12:1,2019-04-05T08:35:00Z,27.4980,-83.7220,1.0,22.11,11111222 
COMPS,ioos:station:USF.COMPS:C12:1,2019-04-05T09:05:00Z,27.4980,-83.7220,1.0,22.07,11111222 
COMPS,ioos:station:USF.COMPS:C12:1,2019-04-05T09:35:00Z,27.4980,-83.7220,1.0,22.01,11111222 
COMPS,ioos:station:USF.COMPS:C12:1,2019-04-05T10:05:00Z,27.4980,-83.7220,1.0,22.06,11111222 
COMPS,ioos:station:USF.COMPS:C12:1,2019-04-05T10:35:00Z,27.4980,-83.7220,1.0,22.05,11111222 
COMPS,ioos:station:USF.COMPS:C12:1,2019-04-05T11:05:00Z,27.4980,-83.7220,1.0,22.05,11111222 
COMPS,ioos:station:USF.COMPS:C12:1,2019-04-05T11:35:00Z,27.4980,-83.7220,1.0,22.05,11111222 
COMPS,ioos:station:USF.COMPS:C12:1,2019-04-05T12:05:00Z,27.4980,-83.7220,1.0,22.04,11111222 
COMPS,ioos:station:USF.COMPS:C12:1,2019-04-05T12:35:00Z,27.4980,-83.7220,1.0,22.04,11111222 
COMPS,ioos:station:USF.COMPS:C12:1,2019-04-05T13:05:00Z,27.4980,-83.7220,1.0,22.05,11111222 
COMPS,ioos:station:USF.COMPS:C12:1,2019-04-05T13:35:00Z,27.4980,-83.7220,1.0,22.06,11111222 
COMPS,ioos:station:USF.COMPS:C12:1,2019-04-05T14:05:00Z,27.4980,-83.7220,1.0,22.07,11111222 
COMPS,ioos:station:USF.COMPS:C12:1,2019-04-05T14:35:00Z,27.4980,-83.7220,1.0,22.08,11111222 
COMPS,ioos:station:USF.COMPS:C12:1,2019-04-05T15:05:00Z,27.4980,-83.7220,1.0,22.1,11111222 
COMPS,ioos:station:USF.COMPS:C12:1,2019-04-05T15:35:00Z,27.4980,-83.7220,1.0,22.13,11111222 
COMPS,ioos:station:USF.COMPS:C12:1,2019-04-05T16:05:00Z,27.4980,-83.7220,1.0,22.2,11111222 
COMPS,ioos:station:USF.COMPS:C12:1,2019-04-05T16:35:00Z,27.4980,-83.7220,1.0,22.24,11111222 
COMPS,ioos:station:USF.COMPS:C12:1,2019-04-05T17:05:00Z,27.4980,-83.7220,1.0,22.32,11111222 
COMPS,ioos:station:USF.COMPS:C12:1,2019-04-05T17:35:00Z,27.4980,-83.7220,1.0,22.37,11111222 
COMPS,ioos:station:USF.COMPS:C12:1,2019-04-05T18:05:00Z,27.4980,-83.7220,1.0,22.44,11111222 
COMPS,ioos:station:USF.COMPS:C12:1,2019-04-05T18:35:00Z,27.4980,-83.7220,1.0,22.51,11111222 
COMPS,ioos:station:USF.COMPS:C12:1,2019-04-05T19:05:00Z,27.4980,-83.7220,1.0,22.59,11111222 
COMPS,ioos:station:USF.COMPS:C12:1,2019-04-05T19:35:00Z,27.4980,-83.7220,1.0,22.67,11111222 
COMPS,ioos:station:USF.COMPS:C12:1,2019-04-05T20:05:00Z,27.4980,-83.7220,1.0,22.67,11111222 
COMPS,ioos:station:USF.COMPS:C12:1,2019-04-05T20:35:00Z,27.4980,-83.7220,1.0,22.79,11111222 
COMPS,ioos:station:USF.COMPS:C12:1,2019-04-05T21:05:00Z,27.4980,-83.7220,1.0,22.85,11111222 
COMPS,ioos:station:USF.COMPS:C12:1,2019-04-05T21:35:00Z,27.4980,-83.7220,1.0,22.96,11111222 
COMPS,ioos:station:USF.COMPS:C12:1,2019-04-05T22:05:00Z,27.4980,-83.7220,1.0,22.9,11111222 
COMPS,ioos:station:USF.COMPS:C12:1,2019-04-05T22:35:00Z,27.4980,-83.7220,1.0,22.87,11111222 
COMPS,ioos:station:USF.COMPS:C12:1,2019-04-05T23:05:00Z,27.4980,-83.7220,1.0,22.94,11111222 
COMPS,ioos:station:USF.COMPS:C12:1,2019-04-05T23:35:00Z,27.4980,-83.7220,1.0,22.82,11111222 
COMPS,ioos:station:USF.COMPS:C12:1,2019-04-06T00:05:00Z,27.4980,-83.7220,1.0,22.8,11111222 
COMPS,ioos:station:USF.COMPS:C12:1,2019-04-06T00:35:00Z,27.4980,-83.7220,1.0,22.84,11111222 
COMPS,ioos:station:USF.COMPS:C12:1,2019-04-06T01:05:00Z,27.4980,-83.7220,1.0,22.81,11111222 
COMPS,ioos:station:USF.COMPS:C12:1,2019-04-06T01:35:00Z,27.4980,-83.7220,1.0,22.84,11111222 
COMPS,ioos:station:USF.COMPS:C12:1,2019-04-06T02:05:00Z,27.4980,-83.7220,1.0,22.89,11111222 
COMPS,ioos:station:USF.COMPS:C12:1,2019-04-06T02:35:00Z,27.4980,-83.7220,1.0,22.85,11111222 
COMPS,ioos:station:USF.COMPS:C12:1,2019-04-06T03:05:00Z,27.4980,-83.7220,1.0,22.86,11111222 
COMPS,ioos:station:USF.COMPS:C12:1,2019-04-06T03:35:00Z,27.4980,-83.7220,1.0,22.89,11111222 
COMPS,ioos:station:USF.COMPS:C12:1,2019-04-06T04:05:00Z,27.4980,-83.7220,1.0,22.85,11111222 
COMPS,ioos:station:USF.COMPS:C12:1,2019-04-06T04:35:00Z,27.4980,-83.7220,1.0,22.86,11111222 
COMPS,ioos:station:USF.COMPS:C12:1,2019-04-06T05:05:00Z,27.4980,-83.7220,1.0,22.88,11111222 
COMPS,ioos:station:USF.COMPS:C12:1,2019-04-06T05:35:00Z,27.4980,-83.7220,1.0,22.88,11111222 
COMPS,ioos:station:USF.COMPS:C12:1,2019-04-06T06:05:00Z,27.4980,-83.7220,1.0,22.88,11111222 
COMPS,ioos:station:USF.COMPS:C12:1,2019-04-06T06:35:00Z,27.4980,-83.7220,1.0,22.88,11111222 
COMPS,ioos:station:USF.COMPS:C12:1,2019-04-06T07:05:00Z,27.4980,-83.7220,1.0,22.85,11111222 
COMPS,ioos:station:USF.COMPS:C12:1,2019-04-06T07:35:00Z,27.4980,-83.7220,1.0,22.83,11111222 
COMPS,ioos:station:USF.COMPS:C12:1,2019-04-06T08:05:00Z,27.4980,-83.7220,1.0,22.82,11111222 
COMPS,ioos:station:USF.COMPS:C12:1,2019-04-06T08:35:00Z,27.4980,-83.7220,1.0,22.81,11111222 
COMPS,ioos:station:USF.COMPS:C12:1,2019-04-06T09:05:00Z,27.4980,-83.7220,1.0,22.8,11111222 
COMPS,ioos:station:USF.COMPS:C12:1,2019-04-06T09:35:00Z,27.4980,-83.7220,1.0,22.8,11111222 
COMPS,ioos:station:USF.COMPS:C12:1,2019-04-06T10:05:00Z,27.4980,-83.7220,1.0,22.77,11111222 